Hourly Data Report for March 27, 1986

TIMMINS VICTOR POWER A
ONTARIO

48°34'11.000" N
81°22'36.000" W
294.70 m
6078285
71739
YTS

Download Data

Hourly Data (March 1986)
Hourly Data Report for March 27, 1986
TIME
LST
Temp Definition
°C
Dew Point Definition
°C
Rel Hum Definition
%
Precip. Amount Definition
mm

Wind Dir Definition
10's deg

Wind Spd Definition
km/h
Visibility Definition
km
Stn Press Definition
kPa
Hmdx Definition


Wind Chill Definition


Weather Definition


00:00 -6.6 -9.5 80   2 22 4.8 98.67   -14 Snow
01:00 -7.6 -11.2 75   2 19 4.8 98.73   -15 Snow
02:00 -9.3 -14.7 64   1 15 19.3 98.76   -16 Cloudy
03:00 -9.9 -15.4 64   1 17 24.1 98.83   -17 Cloudy
04:00 -10.6 -15.3 68   1 13 24.1 98.86   -17 Cloudy
05:00 -11.3 -15.3 72   1 15 24.1 98.90   -18 Cloudy
06:00 -12.1 -16.7 68   2 13 24.1 98.96   -19 Mostly Cloudy
07:00 -12.3 -17.0 68   33 11 24.1 99.06   -18 Mostly Cloudy
08:00 -12.5 -16.6 71   1 19 24.1 99.06   -21 Mainly Clear
09:00 -11.3 -16.7 64   4 15 24.1 99.06   -18 Mostly Cloudy
10:00 -8.9 -15.3 60   4 9 24.1 99.09   -14 Mainly Clear
11:00 -7.0 -15.8 49   9 4 24.1 99.03   -9 Mainly Clear
12:00 -3.7 -13.8 45   30 7 24.1 98.96   -7 Mostly Cloudy
13:00 -3.2 -13.3 46   20 6 24.1 98.86   -6 Cloudy
14:00 -1.8 -13.0 42     0 24.1 98.80     Cloudy
15:00 -1.6 -14.4 37   15 7 24.1 98.70   -4 Cloudy
16:00 -2.2 -13.5 42   19 11 24.1 98.67   -6 Cloudy
17:00 -1.5 -13.1 41   19 11 24.1 98.60   -5 Cloudy
18:00 -2.2 -11.9 47   18 6 24.1 98.57   -5 Cloudy
19:00 -2.3 -10.3 54   18 9 24.1 98.50   -6 Cloudy
20:00 -2.9 -6.3 77   18 13 24.1 98.43   -8 Cloudy
21:00 -3.3 -6.0 81   17 11 24.1 98.43   -8 Cloudy
22:00 -3.5 -5.8 84   17 11 24.1 98.37   -8 Cloudy
23:00 -3.3 -6.0 81   16 19 24.1 98.27   -9 Cloudy

Notes on Data Quality.

Legend

  • E = Estimated
  • M = Missing
  • NA = Not Available*
  • [empty] = Indicates an unobserved value
Date modified: